GW3497 Weather Reports


time (UTC)temp
C
wind
direction
speed
KPH
gust
KPH
rain 1hr
cm
rain 24hr
cm
rain mn
cm
humidity
%
barometer
mb
20260508143248 16 106 3.2 6.4 0.00 0.00 0.00 54 1016.7
20260508142752 16 106 4.8 6.4 0.00 0.00 0.00 54 1016.7
20260508142251 16 166 3.2 32.2 0.00 0.00 0.00 54 1016.8
20260508141745 16 166 3.2 32.2 0.00 0.00 0.00 54 1016.7
20260508141247 16 147 0.0 1.6 0.00 0.00 0.00 54 1016.7
20260508140745 -17 192 1.6 1.6 0.00 0.00 0.00 1016.8
20260508140243 -17 152 1.6 4.8 0.00 0.00 0.00 1016.9
20260508135744 -17 131 3.2 4.8 0.00 0.00 0.00 1016.7
20260508135246 -17 100 4.8 4.8 0.00 0.00 0.00 1016.7
20260508134744 -17 135 4.8 6.4 0.00 0.00 0.00 1016.7
20260508134244 -17 135 4.8 6.4 0.00 0.00 0.00 1016.8
20260508133745 -17 176 0.0 1.6 0.00 0.00 0.00 1016.8
20260508133245 16 116 1.6 8.0 0.00 0.00 0.00 54 1016.9
20260508132744 16 127 6.4 8.0 0.00 0.00 0.00 54 1016.8
20260508132240 16 130 4.8 4.8 0.00 0.00 0.00 54 1016.9
20260508131739 -17 130 4.8 8.0 0.00 0.00 0.00 1016.9
20260508131239 17 158 6.4 8.0 0.00 0.00 0.00 54 1016.9
20260508130740 17 176 0.0 4.8 0.00 0.00 0.00 54 1016.8
20260508130242 17 186 3.2 4.8 0.00 0.00 0.00 55 1016.8
20260508125737 17 104 4.8 4.8 0.00 0.00 0.00 55 1016.8
20260508125234 17 121 1.6 1.6 0.00 0.00 0.00 55 1016.9
20260508124731 -17 111 6.4 11.3 0.00 0.00 0.00 1016.8
20260508124231 17 111 6.4 11.3 0.00 0.00 0.00 54 1016.8
20260508123733 17 179 9.7 14.5 0.00 0.00 0.00 54 1016.8
20260508123231 17 179 9.7 14.5 0.00 0.00 0.00 53 1016.8
20260508122732 17 180 4.8 8.0 0.00 0.00 0.00 53 1016.9
20260508122231 18 165 0.0 9.7 0.00 0.00 0.00 54 1016.9
20260508121728 18 149 8.0 9.7 0.00 0.00 0.00 54 1016.9
20260508121225 18 206 4.8 4.8 0.00 0.00 0.00 54 1016.8
20260508120957 18 206 4.8 4.8 0.00 0.00 0.00 57 1016.8
20260508120510 18 155 8.0 8.0 0.00 0.00 0.00 57 1016.8
20260508115714 -17 155 8.0 8.0 0.00 0.00 0.00 1016.8
20260508115453 -17 192 4.8 4.8 0.00 0.00 0.00 1016.8
20260508114712 -17 154 0.0 1.6 0.00 0.00 0.00 1016.9
20260508114203 -17 154 1.6 6.4 0.00 0.00 0.00 1016.9
20260508113700 17 148 6.4 6.4 0.00 0.00 0.00 58 1016.9
20260508113200 17 148 3.2 6.4 0.00 0.00 0.00 58 1017.0
20260508112653 17 176 3.2 6.4 0.00 0.00 0.00 58 1016.9
20260508112150 17 176 3.2 6.4 0.00 0.00 0.00 58 1016.9
20260508111651 -17 120 3.2 3.2 0.00 0.00 0.00 1016.9
20260508111430 -17 100 6.4 6.4 0.00 0.00 0.00 1016.8
20260508110650 -17 100 6.4 6.4 0.00 0.00 0.00 1016.9
20260508110150 -17 171 3.2 4.8 0.00 0.00 0.00 1017.0
20260508105646 -17 131 4.8 4.8 0.00 0.00 0.00 1016.9
20260508105141 -17 111 3.2 4.8 0.00 0.00 0.00 1016.9
20260508104637 -17 100 3.2 3.2 0.00 0.00 0.00 1016.8
20260508104131 17 145 1.6 6.4 0.00 0.00 0.00 60 1016.8
20260508103633 17 87 4.8 6.4 0.00 0.00 0.00 60 1016.8
20260508103420 17 130 0.0 11.3 0.00 0.00 0.00 62 1016.9
20260508102634 17 109 11.3 11.3 0.00 0.00 0.00 62 1016.9
20260508102134 17 102 11.3 11.3 0.00 0.00 0.00 62 1016.9
20260508101632 -17 109 8.0 8.0 0.00 0.00 0.00 1016.9
20260508101428 -17 204 1.6 6.4 0.00 0.00 0.00 1017.0
20260508100948 -17 103 4.8 9.7 0.00 0.00 0.00 1017.1
20260508100419 16 90 9.7 9.7 0.00 0.00 0.00 65 1017.0
20260508095623 16 145 6.4 8.0 0.00 0.00 0.00 65 1017.0
20260508095122 16 145 6.4 8.0 0.00 0.00 0.00 65 1017.0
20260508094911 16 124 8.0 8.0 0.00 0.00 0.00 65 1017.1
20260508094111 16 90 8.0 11.3 0.00 0.00 0.00 65 1017.0
20260508093616 16 131 11.3 11.3 0.00 0.00 0.00 67 1016.9
20260508093111 -17 154 3.2 3.2 0.00 0.00 0.00 1017.0
20260508092610 -17 154 3.2 3.2 0.00 0.00 0.00 1017.0
20260508092109 -17 155 1.6 1.6 0.00 0.00 0.00 1016.9
20260508091610 -17 0.0 0.0 0.00 0.00 0.00 1016.9
20260508091401 -17 145 8.0 8.0 0.00 0.00 0.00 1016.9
20260508090608 13 145 8.0 11.3 0.00 0.00 0.00 77 1017.0
20260508090109 13 106 9.7 11.3 0.00 0.00 0.00 77 1017.0
20260508085608 -17 96 3.2 4.8 0.00 0.00 0.00 1017.0
20260508085106 -17 147 4.8 8.0 0.00 0.00 0.00 1017.0
20260508084606 -17 138 8.0 11.3 0.00 0.00 0.00 1017.1
20260508084106 13 100 8.0 11.3 0.00 0.00 0.00 81 1017.0
20260508083605 13 97 9.7 9.7 0.00 0.00 0.00 81 1017.1
20260508083107 13 121 4.8 8.0 0.00 0.00 0.00 83 1017.0
20260508082603 13 114 3.2 4.8 0.00 0.00 0.00 83 1017.0
20260508082103 -17 114 3.2 9.7 0.00 0.00 0.00 1016.9
20260508081603 -17 113 6.4 9.7 0.00 0.00 0.00 1016.9
20260508081355 11 114 6.4 6.4 0.00 0.00 0.00 88 1016.8
20260508080604 11 204 4.8 8.0 0.00 0.00 0.00 88 1016.9
20260508080105 11 133 8.0 8.0 0.00 0.00 0.00 88 1016.9
20260508075603 11 142 1.6 6.4 0.00 0.00 0.00 88 1016.9
20260508075102 11 106 1.6 6.4 0.00 0.00 0.00 90 1016.9
20260508074550 11 113 6.4 6.4 0.00 0.00 0.00 90 1016.9
20260508074050 -17 120 3.2 6.4 0.00 0.00 0.00 1017.0
20260508073841 11 145 4.8 4.8 0.00 0.00 0.00 90 1017.0
20260508073055 11 190 1.6 4.8 0.00 0.00 0.00 90 1017.0
20260508072545 10 109 1.6 1.6 0.00 0.00 0.00 90 1017.1
20260508072049 10 182 1.6 1.6 0.00 0.00 0.00 90 1017.0
20260508071546 10 99 4.8 8.0 0.00 0.00 0.00 91 1016.8
20260508071041 10 99 4.8 8.0 0.00 0.00 0.00 91 1016.8
20260508070536 10 128 3.2 4.8 0.00 0.00 0.00 92 1016.8
20260508070056 10 109 4.8 4.8 0.00 0.00 0.00 92 1016.9
20260508065534 10 159 1.6 4.8 0.00 0.00 0.00 92 1016.8
20260508065035 10 118 3.2 3.2 0.00 0.00 0.00 92 1016.8
20260508064824 9 107 3.2 4.8 0.00 0.00 0.00 92 1016.8
20260508064036 9 107 3.2 8.0 0.00 0.00 0.00 92 1016.6
20260508063541 8 117 6.4 8.0 0.00 0.00 0.00 93 1016.7
20260508063047 8 99 4.8 8.0 0.00 0.00 0.00 93 1016.6
20260508062828 8 97 6.4 8.0 0.00 0.00 0.00 93 1016.6
20260508062333 7 103 4.8 8.0 0.00 0.00 0.00 92 1016.7
20260508061532 7 103 3.2 6.4 0.00 0.00 0.00 92 1016.6
20260508061038 6 114 1.6 4.8 0.00 0.00 0.00 92 1016.6
20260508060816 6 114 1.6 4.8 0.00 0.00 0.00 92 1016.6
20260508060114 6 114 3.2 4.8 0.00 0.00 0.00 92 1016.6
20260508055529 6 114 1.6 4.8 0.00 0.00 0.00 92 1016.5
20260508055039 6 114 3.2 4.8 0.00 0.00 0.00 92 1016.6
20260508054531 6 114 1.6 4.8 0.00 0.00 0.00 91 1016.6
20260508054149 5 114 1.6 4.8 0.00 0.00 0.00 91 1016.4
20260508054125 5 114 1.6 4.8 0.00 0.00 0.00 91 1016.5
20260508053047 5 114 3.2 3.2 0.00 0.00 0.00 90 1016.5
20260508052526 5 114 0.0 3.2 0.00 0.00 0.00 90 1016.4
20260508052038 4 114 1.6 3.2 0.00 0.00 0.00 90 1016.4
20260508051528 4 114 0.0 0.0 0.00 0.00 0.00 89 1016.3
20260508051033 4 114 0.0 0.0 0.00 0.00 0.00 88 1016.4
20260508050813 3 114 0.0 0.0 0.00 0.00 0.00 88 1016.3
20260508050054 3 114 0.0 0.0 0.00 0.00 0.00 88 1016.4
20260508045816 3 114 0.0 0.0 0.00 0.00 0.00 87 1016.3
20260508045034 3 114 0.0 0.0 0.00 0.00 0.00 87 1016.2
20260508044807 3 114 0.0 0.0 0.00 0.00 0.00 87 1016.2
20260508044038 4 114 0.0 0.0 0.00 0.00 0.00 87 1016.3
20260508043526 4 114 0.0 0.0 0.00 0.00 0.00 87 1016.2
20260508043045 4 114 0.0 0.0 0.00 0.00 0.00 87 1016.2
20260508042524 4 114 0.0 0.0 0.00 0.00 0.00 87 1016.3
20260508042031 4 114 0.0 0.0 0.00 0.00 0.00 86 1016.3
20260508041524 4 114 0.0 0.0 0.00 0.00 0.00 87 1016.3
20260508041031 4 114 0.0 0.0 0.00 0.00 0.00 86 1016.3
20260508040524 4 114 0.0 0.0 0.00 0.00 0.00 86 1016.2
20260508040346 4 114 0.0 0.0 0.00 0.00 0.00 86 1016.3
20260508035524 4 114 0.0 0.0 0.00 0.00 0.00 86 1016.3
20260508035030 5 114 0.0 0.0 0.00 0.00 0.00 86 1016.3
20260508034809 5 114 0.0 0.0 0.00 0.00 0.00 86 1016.3
20260508034325 5 114 0.0 0.0 0.00 0.00 0.00 86 1016.2
20260508033809 5 114 0.0 0.0 0.00 0.00 0.00 86 1016.2
20260508033329 5 114 0.0 0.0 0.00 0.00 0.00 86 1016.1
20260508032524 5 114 0.0 0.0 0.00 0.00 0.00 86 1016.2
20260508032031 5 114 0.0 0.0 0.00 0.00 0.00 86 1016.3
20260508031522 5 114 0.0 0.0 0.00 0.00 0.00 86 1016.3
20260508031028 5 114 0.0 0.0 0.00 0.00 0.00 85 1016.3
20260508030521 5 114 0.0 0.0 0.00 0.00 0.00 86 1016.3
20260508030046 5 114 0.0 0.0 0.00 0.00 0.00 85 1016.3
20260508025521 5 114 0.0 0.0 0.00 0.00 0.00 85 1016.2
20260508025031 6 114 0.0 0.0 0.00 0.00 0.00 85 1016.2
20260508024521 6 114 0.0 0.0 0.00 0.00 0.00 85 1016.3
20260508024029 6 114 0.0 0.0 0.00 0.00 0.00 85 1016.2
20260508023519 6 114 0.0 0.0 0.00 0.00 0.00 85 1016.3
20260508023041 6 114 0.0 0.0 0.00 0.00 0.00 85 1016.3
20260508022519 6 114 0.0 0.0 0.00 0.00 0.00 85 1016.3
20260508022319 6 114 0.0 0.0 0.00 0.00 0.00 85 1016.3
20260508021806 6 114 0.0 0.0 0.00 0.00 0.00 85 1016.3
20260508021028 7 114 0.0 0.0 0.00 0.00 0.00 85 1016.2
20260508020519 7 114 0.0 0.0 0.00 0.00 0.00 85 1016.2
20260508020044 7 114 0.0 0.0 0.00 0.00 0.00 85 1016.2
20260508015518 7 114 0.0 0.0 0.00 0.00 0.00 85 1016.2
20260508015025 7 114 0.0 0.0 0.00 0.00 0.00 85 1016.2
20260508014519 7 114 0.0 0.0 0.00 0.00 0.00 85 1016.2
20260508014024 7 114 0.0 0.0 0.00 0.00 0.00 84 1016.2
20260508013517 7 114 0.0 0.0 0.00 0.00 0.00 84 1016.1
20260508013037 7 114 0.0 0.0 0.00 0.00 0.00 84 1016.1
20260508012517 8 114 0.0 1.6 0.00 0.00 0.00 84 1016.3
20260508012028 8 114 0.0 1.6 0.00 0.00 0.00 84 1016.2
20260508011518 8 114 0.0 0.0 0.00 0.00 0.00 84 1016.3
20260508011028 8 114 0.0 0.0 0.00 0.00 0.00 84 1016.3
20260508010515 8 114 0.0 0.0 0.00 0.00 0.00 84 1016.2
20260508010046 8 114 0.0 0.0 0.00 0.00 0.00 84 1016.3
20260508005514 8 114 0.0 0.0 0.00 0.00 0.00 84 1016.3
20260508005024 8 114 0.0 0.0 0.00 0.00 0.00 85 1016.3
20260508004513 9 114 0.0 0.0 0.00 0.00 0.00 85 1016.4
20260508004024 9 114 0.0 0.0 0.00 0.00 0.00 86 1016.3
20260508003510 9 114 0.0 0.0 0.00 0.00 0.00 86 1016.3
20260508003332 9 114 0.0 3.2 0.00 0.00 0.00 86 1016.3
20260508002512 9 114 0.0 4.8 0.00 0.00 0.00 86 1016.2
20260508002029 9 114 0.0 6.4 0.00 0.00 0.00 86 1016.3
20260508001517 9 114 3.2 6.4 0.00 0.00 0.00 87 1016.3
20260508001001 10 114 3.2 9.7 0.00 0.00 0.00 87 1016.3
20260508000503 10 111 3.2 9.7 0.00 0.00 0.00 86 1016.1
20260508000000 10 117 3.2 8.0 0.00 0.00 0.00 86 1016.2
20260507235459 10 79 3.2 6.4 0.00 0.00 0.00 86 1016.2
20260507234959 10 124 3.2 6.4 0.00 0.00 0.00 86 1016.2
20260507234457 10 127 3.2 6.4 0.00 0.00 0.00 86 1016.3
20260507234314 10 159 3.2 4.8 0.00 0.00 0.00 86 1016.3
20260507233456 10 159 1.6 4.8 0.00 0.00 0.00 85 1016.5
20260507232954 10 159 0.0 4.8 0.00 0.00 0.00 85 1016.4
20260507232454 10 159 1.6 4.8 0.00 0.00 0.00 85 1016.4
20260507231953 10 159 0.0 6.4 0.00 0.00 0.00 85 1016.5
20260507231453 10 159 1.6 6.4 0.00 0.00 0.00 85 1016.5
20260507230953 10 165 0.0 6.4 0.00 0.00 0.00 85 1016.6
20260507230503 10 117 3.2 6.4 0.00 0.00 0.00 85 1016.6
20260507225954 10 110 3.2 6.4 0.00 0.00 0.00 85 1016.7
20260507225453 10 162 1.6 6.4 0.00 0.00 0.00 84 1016.5
20260507224951 10 135 1.6 6.4 0.00 0.00 0.00 84 1016.6
20260507224451 10 125 3.2 6.4 0.00 0.00 0.00 84 1016.6
20260507224319 10 128 1.6 6.4 0.00 0.00 0.00 84 1016.7
20260507223449 10 128 1.6 4.8 0.00 0.00 0.00 84 1016.6
20260507222949 10 121 3.2 6.4 0.00 0.00 0.00 84 1016.6
20260507222446 10 159 3.2 6.4 0.00 0.00 0.00 84 1016.7
20260507221946 10 134 1.6 8.0 0.00 0.00 0.00 84 1016.7
20260507221447 10 117 1.6 8.0 0.00 0.00 0.00 84 1016.7
20260507221320 10 137 3.2 8.0 0.00 0.00 0.00 83 1016.7
20260507220447 10 135 1.6 6.4 0.00 0.00 0.00 83 1016.7
20260507215943 10 135 3.2 6.4 0.00 0.00 0.00 83 1016.7
20260507215445 10 135 3.2 8.0 0.00 0.00 0.00 83 1016.8
20260507215130 10 125 1.6 8.0 0.00 0.00 0.00 83 1016.8
20260507215033 10 130 4.8 8.0 0.00 0.00 0.00 83 1016.8
20260507213944 10 127 1.6 8.0 0.00 0.00 0.00 82 1016.8
20260507213443 10 124 3.2 8.0 0.00 0.00 0.00 82 1016.8
20260507212943 11 124 1.6 8.0 0.00 0.00 0.00 82 1016.8
20260507212442 11 138 1.6 6.4 0.00 0.00 0.00 82 1016.8
20260507211943 11 130 1.6 6.4 0.00 0.00 0.00 82 1016.7
20260507211443 11 130 3.2 6.4 0.00 0.00 0.00 82 1016.7
20260507210942 11 131 3.2 6.4 0.00 0.00 0.00 81 1016.6
20260507210443 11 133 1.6 8.0 0.00 0.00 0.00 81 1016.6
20260507205943 11 131 1.6 8.0 0.00 0.00 0.00 80 1016.5
20260507205446 11 135 1.6 4.8 0.00 0.00 0.00 80 1016.5
20260507204943 11 135 1.6 6.4 0.00 0.00 0.00 80 1016.5
20260507204442 11 135 1.6 8.0 0.00 0.00 0.00 80 1016.4
20260507203944 11 140 3.2 9.7 0.00 0.00 0.00 80 1016.3
20260507203442 11 124 4.8 9.7 0.00 0.00 0.00 79 1016.3
20260507202942 11 120 6.4 11.3 0.00 0.00 0.00 79 1016.3
20260507202442 11 157 4.8 11.3 0.00 0.00 0.00 79 1016.4
20260507201944 11 186 3.2 11.3 0.00 0.00 0.00 79 1016.3
20260507201802 11 121 4.8 11.3 0.00 0.00 0.00 78 1016.2
20260507200942 11 117 4.8 11.3 0.00 0.00 0.00 78 1016.1
20260507200442 11 114 3.2 11.3 0.00 0.00 0.00 78 1016.1
20260507195944 11 137 4.8 14.5 0.00 0.00 0.00 78 1016.0
20260507195444 11 134 6.4 14.5 0.00 0.00 0.00 77 1015.9
20260507195311 11 120 6.4 11.3 0.00 0.00 0.00 77 1015.8
20260507194439 11 165 4.8 11.3 0.00 0.00 0.00 77 1015.7
20260507194313 11 142 1.6 9.7 0.00 0.00 0.00 76 1015.7
20260507193439 11 116 4.8 14.5 0.00 0.00 0.00 76 1015.7
20260507192938 11 168 4.8 14.5 0.00 0.00 0.00 75 1015.6
20260507192440 11 185 3.2 14.5 0.00 0.00 0.00 75 1015.7
20260507191938 12 141 6.4 11.3 0.00 0.00 0.00 74 1015.7
20260507191637 12 131 6.4 11.3 0.00 0.00 0.00 73 1015.5
20260507191548 12 116 3.2 11.3 0.00 0.00 0.00 73 1015.6
20260507190436 12 149 4.8 9.7 0.00 0.00 0.00 72 1015.6
20260507185938 12 120 6.4 17.7 0.00 0.00 0.00 72 1015.6
20260507185435 12 145 6.4 17.7 0.00 0.00 0.00 72 1015.6
20260507185333 12 142 8.0 11.3 0.00 0.00 0.00 71 1015.6
20260507184557 12 128 6.4 11.3 0.00 0.00 0.00 70 1015.7
20260507183432 12 199 3.2 14.5 0.00 0.00 0.00 70 1015.6
20260507182934 12 151 6.4 14.5 0.00 0.00 0.00 68 1015.5
20260507182435 12 152 1.6 8.0 0.00 0.00 0.00 68 1015.5
20260507181932 -17 168 8.0 8.0 0.00 0.00 0.00 1015.5
20260507181433 13 179 6.4 6.4 0.00 0.00 0.00 67 1015.3
20260507181302 13 155 6.4 6.4 0.00 0.00 0.00 67 1015.3
20260507180432 13 144 6.4 6.4 0.00 0.00 0.00 67 1015.2
20260507175933 13 149 3.2 8.0 0.00 0.00 0.00 67 1015.2
20260507175433 13 135 8.0 9.7 0.00 0.00 0.00 67 1015.2
20260507174934 -17 166 9.7 16.1 0.00 0.00 0.00 1015.2
20260507174433 -17 155 9.7 16.1 0.00 0.00 0.00 1015.1
20260507174307 13 137 8.0 8.0 0.00 0.00 0.00 68 1015.2
20260507173741 13 154 6.4 8.0 0.00 0.00 0.00 68 1015.1
20260507172935 13 104 8.0 8.0 0.00 0.00 0.00 68 1015.1
20260507172433 13 104 8.0 8.0 0.00 0.00 0.00 68 1015.1
20260507171932 -17 190 6.4 6.4 0.00 0.00 0.00 1015.1
20260507171431 13 147 4.8 9.7 0.00 0.00 0.00 68 1015.1
20260507170920 13 86 4.8 9.7 0.00 0.00 0.00 68 1015.1
20260507170420 13 100 8.0 8.0 0.00 0.00 0.00 69 1015.1
20260507170250 13 109 0.0 3.2 0.00 0.00 0.00 69 1015.1
20260507165406 13 109 0.0 9.7 0.00 0.00 0.00 69 1015.2
20260507164906 13 109 4.8 9.7 0.00 0.00 0.00 69 1015.2
20260507164403 13 94 3.2 11.3 0.00 0.00 0.00 69 1015.2
20260507163904 13 87 6.4 11.3 0.00 0.00 0.00 69 1015.2
20260507163710 13 92 6.4 11.3 0.00 0.00 0.00 69 1015.2
20260507162905 13 89 3.2 11.3 0.00 0.00 0.00 69 1015.3
20260507162403 13 120 4.8 11.3 0.00 0.00 0.00 68 1015.3
20260507161900 13 104 3.2 9.7 0.00 0.00 0.00 69 1015.2
20260507161358 13 107 3.2 9.7 0.00 0.00 0.00 69 1015.3
20260507160854 13 79 3.2 9.7 0.00 0.00 0.00 68 1015.2
20260507160355 13 110 4.8 16.1 0.00 0.00 0.00 68 1015.2
20260507155852 13 85 6.4 16.1 0.00 0.00 0.00 68 1015.2
20260507155354 13 85 9.7 14.5 0.00 0.00 0.00 67 1015.2
20260507154852 13 125 8.0 14.5 0.00 0.00 0.00 67 1015.3
20260507154352 13 47 4.8 9.7 0.00 0.00 0.00 67 1015.3
20260507154217 13 111 6.4 11.3 0.00 0.00 0.00 64 1015.2
20260507153348 13 97 4.8 11.3 0.00 0.00 0.00 63 1015.2
20260507153224 13 85 3.2 8.0 0.00 0.00 0.00 63 1015.3
20260507152348 13 37 4.8 11.3 0.00 0.00 0.00 64 1015.3
20260507151848 13 102 3.2 11.3 0.00 0.00 0.00 63 1015.3
20260507151346 13 92 6.4 19.3 0.00 0.00 0.00 64 1015.3
20260507150845 13 114 4.8 19.3 0.00 0.00 0.00 62 1015.3
20260507150347 14 49 6.4 11.3 0.00 0.00 0.00 62 1015.2
20260507145845 14 97 3.2 9.7 0.00 0.00 0.00 62 1015.3
20260507145343 14 86 4.8 9.7 0.00 0.00 0.00 62 1015.3
20260507144846 14 179 4.8 6.4 0.00 0.00 0.00 61 1015.3
20260507144653 14 179 4.8 6.4 0.00 0.00 0.00 62 1015.4
20260507143841 14 100 6.4 9.7 0.00 0.00 0.00 60 1015.4